Voltar ao catálogo

YUNHAI 2-1B

AtivoCiênciaLEO
NORAD 43910·PAYLOAD·🇨🇳 China

Lançado Dec 29, 2018 de Jiuquan Satellite Launch Center

Loading…

Próximas Passagens (próximas 24 horas)

TLE

AtualizadoSource: Space-Track

Época: Sep 14, 2026, 15:13 UTC

1 43910U 18112B   26257.63432892  .00000123  00000-0  11187-3 0  9996
2 43910  50.0094  88.1654 0004950 175.4541 184.6420 14.29031669403030

Acompanhe YUNHAI 2-1B em tempo real com AllMySat

Download on the App Store